Satellite-Ground Cal/Val Region Overpasses Predictions

Prediction of Satellite NPP Overpassing Cal/Val Region: PacNW

Region Location: (Latitude: 10.00, Longitude: 139.50) to (Latitude: 22.70, Longitude: 165.60).

Table of predicted overpasses for the next 14.0 days since TLE Epoch: 4/27/2017
Interval Starting Time Starting Location Ending Time Ending Location
1 04/28/2017 02:26:23 ( 10.05, 163.09) 04/28/2017 02:29:58 ( 22.67, 160.09)
2 04/28/2017 14:58:16 ( 22.68, 160.34) 04/28/2017 15:01:52 ( 10.00, 157.32)
3 04/29/2017 02:10:05 ( 19.64, 165.60) 04/29/2017 02:10:57 ( 22.69, 164.84)
4 04/29/2017 03:48:51 ( 10.01, 142.49) 04/29/2017 03:52:24 ( 22.52, 139.51)
5 04/29/2017 14:39:15 ( 22.67, 165.09) 04/29/2017 14:42:50 ( 10.05, 162.09)
6 04/29/2017 16:20:45 ( 22.67, 139.72) 04/29/2017 16:20:59 ( 21.85, 139.51)
7 04/30/2017 03:29:49 ( 10.03, 147.24) 04/30/2017 03:33:24 ( 22.65, 144.24)
8 04/30/2017 16:01:43 ( 22.65, 144.47) 04/30/2017 16:05:18 ( 10.03, 141.47)
9 05/01/2017 03:10:48 ( 10.04, 151.99) 05/01/2017 03:14:23 ( 22.66, 148.99)
10 05/01/2017 15:42:41 ( 22.70, 149.24) 05/01/2017 15:46:17 ( 10.02, 146.22)
11 05/02/2017 02:51:46 ( 10.05, 156.75) 05/02/2017 02:55:21 ( 22.67, 153.74)
12 05/02/2017 15:23:39 ( 22.68, 153.99) 05/02/2017 15:27:15 ( 10.01, 150.98)
13 05/03/2017 02:32:44 ( 10.01, 161.52) 05/03/2017 02:36:20 ( 22.69, 158.50)
14 05/03/2017 15:04:38 ( 22.67, 158.75) 05/03/2017 15:08:13 ( 10.05, 155.74)
15 05/04/2017 02:14:32 ( 12.96, 165.59) 05/04/2017 02:17:17 ( 22.64, 163.27)
16 05/04/2017 03:55:12 ( 10.03, 140.89) 05/04/2017 03:56:54 ( 16.02, 139.50)
17 05/04/2017 14:45:36 ( 22.66, 163.50) 05/04/2017 14:49:11 ( 10.04, 160.50)
18 05/05/2017 03:36:11 ( 10.04, 145.65) 05/05/2017 03:39:46 ( 22.67, 142.65)
19 05/05/2017 14:29:45 ( 11.49, 165.59) 05/05/2017 14:30:10 ( 10.02, 165.25)
20 05/05/2017 16:08:04 ( 22.69, 142.89) 05/05/2017 16:11:40 ( 10.02, 139.88)
21 05/06/2017 03:17:09 ( 10.06, 150.40) 05/06/2017 03:20:44 ( 22.68, 147.40)
22 05/06/2017 15:49:02 ( 22.68, 147.65) 05/06/2017 15:52:38 ( 10.00, 144.63)
23 05/07/2017 02:58:07 ( 10.02, 155.17) 05/07/2017 03:01:43 ( 22.70, 152.15)
24 05/07/2017 15:30:01 ( 22.66, 152.40) 05/07/2017 15:33:36 ( 10.04, 149.40)
25 05/08/2017 02:39:06 ( 10.03, 159.92) 05/08/2017 02:42:41 ( 22.65, 156.92)
26 05/08/2017 15:10:59 ( 22.65, 157.15) 05/08/2017 15:14:34 ( 10.03, 154.15)
27 05/09/2017 02:20:04 ( 10.05, 164.68) 05/09/2017 02:23:39 ( 22.67, 161.67)
28 05/09/2017 14:51:57 ( 22.69, 161.92) 05/09/2017 14:55:33 ( 10.01, 158.90)
29 05/10/2017 03:42:32 ( 10.01, 144.07) 05/10/2017 03:46:08 ( 22.69, 141.05)
30 05/10/2017 14:34:10 ( 18.28, 165.60) 05/10/2017 14:36:30 ( 10.06, 163.67)
31 05/10/2017 16:14:25 ( 22.67, 141.30) 05/10/2017 16:16:31 ( 15.28, 139.51)
32 05/11/2017 03:23:30 ( 10.03, 148.82) 05/11/2017 03:27:05 ( 22.65, 145.82)


NCC Satellite Cal/Val Overpasses Prediction Service
